星链-35121(STARLINK-35121)

导读 | 豆包AI

STARLINK-35121是美国SpaceX星链互联网卫星星座的一员,于北京时间2025年9月25日发射入轨。星链计划旨在通过近地轨道卫星群,为全球提供高速低延迟的宽带互联网服务,该卫星加入后将进一步扩容星座容量,提升全球尤其是偏远地区的网络覆盖能力。

基本信息
目录编号:
65737
目录名称:
STARLINK-35121
国际标识:
2025-216D
轨道中心:
EARTH
卫星名称:
星链-35121
卫星全名:
星链-35121(STARLINK-35121)
卫星状态:
在轨 (已飞行170 天)
发射日期:
2025-09-25 UTC
国别 :
美国 (US)
星等 :
--
轨道信息
数据来源 国际轨道数据 AOE轨道数据
星历时间 2026-03-14T06:56:34+0800
10小时前
查看轨道信息
2026-03-08T23:00:00+0800
5天前
查看轨道信息
半长轴 6853.378km 6853.391km
偏心率 0.0000715 0.0001502
轨道倾角 53.158° 53.160°
近地点辐角 62.403° 75.320°
升交点赤经 313.297° 338.063°
平近点角 297.704° 61.824°
近地点 474.75km 474.224km
远地点 475.732km 476.284km
周期 94.106分钟 94.106分钟
每日圈数 15.301914 15.301872
详细信息
固有亮度:
5
最大亮度:
2.5
卫星平台:
Starlink V1.0
覆盖范围:
全球
运营商:
太空探索技术公司
运营商所在国:
美国
制造商(研发单位):
太空探索技术公司
制造商所在国:
美国
使用方式:
暂无
卫星简介
Starlink 计划是 SpaceX 推出的全球卫星互联网项目,通过发射低轨道卫星,为全球尤其是偏远地区提供高速、低延迟的互联网服务。自 2019 年起,Starlink 已部署数千颗卫星,旨在缩小全球数字鸿沟,推动互联网普及。该项目还为军事、航空等行业提供通信支持,带来广泛经济效益。
2D轨道图
3D轨道图
轨道高度分析图
轨道倾角分析图
轨道综合分析图
查看轨道综合分析图